Dothan, AL

7:48 PM CST on February 20, 2018 (GMT -0600)
Dothan Regional

Weather History for KDHN - July, 2013

Change the Weather History Date:

Monday, July 15, 2013

  Actual Average Record
Temperature  
Mean Temperature 81 °F 82 °F  
Max Temperature 88 °F 92 °F 100 °F (1951)
Min Temperature 73 °F 72 °F 62 °F (1967)
Cooling Degree Days 16 17  
Month to date cooling degree days 198 254  
Year to date cooling degree days 1030 1111  
Since 1 June cooling degree days 658 698  
Growing Degree Days 30 (Base 50)    
Moisture  
Dew Point 71 °F    
Average Humidity 85    
Maximum Humidity 100    
Minimum Humidity 57    
Precipitation  
Precipitation 0.39 in 0.16 in 2.36 in (1949)
Month to date precipitation 12.10 3.05  
Year to date precipitation 29.58 31.01  
Sea Level Pressure  
Sea Level Pressure 30.18 in    
Wind  
Wind Speed 8 mph (ENE)    
Max Wind Speed 17 mph    
Max Gust Speed 30 mph    
Visibility 9 miles    
Events Rain , Thunderstorm    
T = Trace of Precipitation, MM = Missing Value Source: NWS Daily Summary

Daily Weather History Graph

Daily Weather History Graph

Search for Another Location

Airport or City:

Trip Planner

Search our weather history database for the weather conditions in past years. The results will help you decide how hot, cold, wet, or windy it might be!

Date:

Astronomy

Jul. 15, 2013 Rise Set
Actual Time 5:48 AM CDT 7:47 PM CDT
Civil Twilight 5:20 AM CDT 8:14 PM CDT
Nautical Twilight 4:47 AM CDT 8:47 PM CDT
Astronomical Twilight 4:12 AM CDT 9:22 PM CDT
Moon 12:35 PM CDT (7/15) No Moon Set
Length of Visible Light 14h 53m
Length of Day
13h 59m
Waxing Crescent, 45% of the Moon is Illuminated
Jul 15
Waxing Crescent
Jul 15
First Quarter
Jul 22
Full
Jul 29
Last Quarter
Aug 6
New

Hourly Weather History & Observations

Time (CDT) Temp. Heat Index Dew Point Humidity Pressure Visibility Wind Dir Wind Speed Gust Speed Precip Events Conditions
12:53 AM 75.0 °F - 72.0 °F 90% 30.12 in 10.0 mi East 6.9 mph - N/A   Partly Cloudy
1:46 AM 73.4 °F - 71.6 °F 94% 30.14 in 10.0 mi East 5.8 mph - N/A   Mostly Cloudy
1:53 AM 73.9 °F - 72.0 °F 93% 30.13 in 10.0 mi East 6.9 mph - N/A   Mostly Cloudy
2:53 AM 73.0 °F - 71.1 °F 93% 30.13 in 10.0 mi East 4.6 mph - N/A   Clear
3:53 AM 73.0 °F - 71.1 °F 93% 30.14 in 10.0 mi East 4.6 mph - N/A   Scattered Clouds
4:04 AM 73.4 °F - 71.6 °F 94% 30.16 in 10.0 mi East 6.9 mph - N/A   Mostly Cloudy
4:53 AM 73.0 °F - 71.1 °F 93% 30.15 in 10.0 mi East 6.9 mph - N/A   Overcast
5:53 AM 73.0 °F - 71.1 °F 93% 30.16 in 10.0 mi East 9.2 mph - N/A   Overcast
6:53 AM 73.0 °F - 71.1 °F 93% 30.19 in 10.0 mi East 8.1 mph - N/A   Overcast
7:34 AM 73.4 °F - 69.8 °F 88% 30.21 in 10.0 mi East 9.2 mph - N/A   Overcast
7:53 AM 73.9 °F - 70.0 °F 87% 30.20 in 10.0 mi East 15.0 mph 18.4 mph N/A   Overcast
8:29 AM 75.2 °F - 69.8 °F 83% 30.22 in 10.0 mi East 9.2 mph - N/A   Overcast
8:53 AM 75.9 °F - 70.0 °F 82% 30.21 in 10.0 mi East 10.4 mph - N/A   Overcast
9:53 AM 77.0 °F - 70.0 °F 79% 30.22 in 10.0 mi East 11.5 mph 17.3 mph N/A   Overcast
10:53 AM 79.0 °F - 71.1 °F 77% 30.22 in 10.0 mi East 8.1 mph - N/A   Mostly Cloudy
11:07 AM 80.6 °F 83.9 °F 69.8 °F 70% 30.23 in 10.0 mi East 10.4 mph - N/A   Mostly Cloudy
11:37 AM 82.4 °F 87.2 °F 71.6 °F 70% 30.23 in 10.0 mi East 6.9 mph - N/A   Mostly Cloudy
11:53 AM 81.0 °F 84.4 °F 70.0 °F 69% 30.21 in 10.0 mi East 9.2 mph - N/A   Mostly Cloudy
12:53 PM 84.0 °F 88.4 °F 70.0 °F 63% 30.19 in 10.0 mi ESE 10.4 mph - N/A   Scattered Clouds
1:53 PM 86.0 °F 91.5 °F 71.1 °F 61% 30.17 in 10.0 mi East 9.2 mph - N/A   Mostly Cloudy
2:53 PM 87.1 °F 92.0 °F 70.0 °F 57% 30.14 in 10.0 mi ESE 8.1 mph - N/A   Scattered Clouds
3:53 PM 87.1 °F 92.8 °F 71.1 °F 59% 30.11 in 10.0 mi Variable 4.6 mph - N/A   Mostly Cloudy
4:53 PM 88.0 °F 93.8 °F 71.1 °F 57% 30.12 in 10.0 mi East 8.1 mph - N/A Thunderstorm Partly Cloudy
5:07 PM 75.2 °F - 71.6 °F 89% 30.16 in 1.5 mi East 17.3 mph 29.9 mph 0.02 in Rain , Thunderstorm Heavy Thunderstorms and Rain
5:13 PM 73.4 °F - 71.6 °F 94% 30.16 in 0.8 mi East 9.2 mph 26.5 mph 0.07 in Rain , Thunderstorm Heavy Thunderstorms and Rain
5:18 PM 73.4 °F - 73.4 °F 100% 30.16 in 1.0 mi East 3.5 mph - 0.11 in Rain , Thunderstorm Heavy Thunderstorms and Rain
5:27 PM 73.4 °F - 73.4 °F 100% 30.15 in 3.0 mi Calm Calm - 0.18 in Rain , Thunderstorm Light Thunderstorms and Rain
5:42 PM 75.2 °F - 71.6 °F 89% 30.16 in 10.0 mi North 5.8 mph - 0.27 in Rain , Thunderstorm Light Thunderstorms and Rain
5:53 PM 73.9 °F - 70.0 °F 87% 30.16 in 10.0 mi NE 6.9 mph - 0.34 in Thunderstorm Clear
6:03 PM 73.4 °F - 69.8 °F 88% 30.17 in 10.0 mi NNE 4.6 mph - 0.04 in   Partly Cloudy
6:53 PM 73.9 °F - 72.0 °F 93% 30.16 in 10.0 mi NE 5.8 mph - 0.05 in   Clear
7:53 PM 75.9 °F - 72.0 °F 87% 30.16 in 10.0 mi NE 8.1 mph - N/A   Clear
8:53 PM 73.9 °F - 72.0 °F 93% 30.19 in 10.0 mi NE 5.8 mph - N/A   Clear
9:53 PM 73.9 °F - 73.0 °F 97% 30.19 in 10.0 mi NE 8.1 mph - N/A   Clear
10:09 PM 73.4 °F - 73.4 °F 100% 30.20 in 10.0 mi NE 8.1 mph - N/A   Partly Cloudy
10:28 PM 73.4 °F - 73.4 °F 100% 30.21 in 10.0 mi NE 8.1 mph - N/A   Mostly Cloudy
10:53 PM 73.9 °F - 73.0 °F 97% 30.21 in 10.0 mi NE 6.9 mph - N/A   Overcast
11:53 PM 75.0 °F - 73.0 °F 94% 30.21 in 10.0 mi ENE 6.9 mph - N/A   Overcast